• In Netherlands
  • List of Countries
  • For 7 days
  • Water Temperature
  • Satellite Maps
  • Weather Map
  • Weather Widgets
  • user-avatar
    Login

    Hourly Weather Armawir

    Today, 30 March, Thursday

    Time Temperature Precipitation Wind Pressure Humidity
    00:00 +5°C° 0 mm 1 mps 689 mmHg 67%
    01:00 +5°C° 0 mm 1 mps 689 mmHg 68%
    02:00 +4°C° 0 mm 1 mps 689 mmHg 68%
    03:00 +3°C° 0 mm 1 mps 688 mmHg 70%
    04:00 +2°C° 0 mm 1 mps 688 mmHg 70%
    05:00 +2°C° 0 mm 1 mps 688 mmHg 70%
    06:00 +2°C° 0 mm 1 mps 688 mmHg 70%
    07:00 +5°C° 0 mm 1 mps 689 mmHg 65%
    08:00 +8°C° 0 mm 1 mps 689 mmHg 61%
    09:00 +12°C° 0 mm 2 mps 690 mmHg 56%
    10:00 +13°C° 0 mm 2 mps 689 mmHg 54%
    11:00 +14°C° 0 mm 2 mps 689 mmHg 52%
    12:00 +15°C° 0 mm 2 mps 689 mmHg 50%
    13:00 +15°C° 0 mm 2 mps 688 mmHg 48%
    14:00 +15°C° 0 mm 2 mps 688 mmHg 47%
    15:00 +16°C° 0 mm 2 mps 687 mmHg 45%
    16:00 +14°C° 0 mm 2 mps 687 mmHg 47%
    17:00 +13°C° 0 mm 2 mps 687 mmHg 50%
    18:00 +10°C° 0 mm 2 mps 687 mmHg 52%
    19:00 +9°C° 0 mm 2 mps 687 mmHg 55%
    20:00 +8°C° 0 mm 1 mps 687 mmHg 58%
    21:00 +7°C° 0 mm 1 mps 687 mmHg 61%
    22:00 +7°C° 0 mm 1 mps 687 mmHg 61%
    23:00 +6°C° 0 mm 1 mps 687 mmHg 62%

    Tomorrow, 31 March, Friday

    Time Temperature Precipitation Wind Pressure Humidity
    00:00 +6°C° 0 mm 1 mps 687 mmHg 62%
    01:00 +6°C° 0 mm 1 mps 687 mmHg 62%
    02:00 +6°C° 0 mm 1 mps 686 mmHg 63%
    03:00 +5°C° 0 mm 1 mps 686 mmHg 63%
    04:00 +5°C° 0 mm 1 mps 686 mmHg 63%
    05:00 +5°C° 0 mm 1 mps 686 mmHg 63%
    06:00 +5°C° 0 mm 1 mps 686 mmHg 64%
    07:00 +7°C° 0 mm 1 mps 686 mmHg 60%
    08:00 +9°C° 0 mm 1 mps 686 mmHg 56%
    09:00 +11°C° 0 mm 1 mps 687 mmHg 52%
    10:00 +12°C° 0.1 mm 1 mps 686 mmHg 51%
    11:00 +13°C° 0.1 mm 1 mps 686 mmHg 50%
    12:00 +14°C° 0.1 mm 1 mps 686 mmHg 49%
    13:00 +14°C° 0.1 mm 1 mps 686 mmHg 49%
    14:00 +15°C° 0.1 mm 1 mps 686 mmHg 50%
    15:00 +15°C° 0.1 mm 2 mps 685 mmHg 50%
    16:00 +14°C° 0.1 mm 1 mps 685 mmHg 53%
    17:00 +13°C° 0.1 mm 1 mps 685 mmHg 57%
    18:00 +12°C° 0.1 mm 1 mps 685 mmHg 60%
    19:00 +11°C° 0.2 mm 1 mps 686 mmHg 63%
    20:00 +10°C° 0.2 mm 1 mps 686 mmHg 66%
    21:00 +10°C° 0.2 mm 1 mps 687 mmHg 69%
    22:00 +9°C° 0.2 mm 1 mps 687 mmHg 71%
    23:00 +9°C° 0.2 mm 1 mps 687 mmHg 73%

    Day after tomorrow, 1 April, Saturday

    Time Temperature Precipitation Wind Pressure Humidity
    00:00 +9°C° 0.2 mm 1 mps 687 mmHg 75%
    01:00 +8°C° 0.2 mm 1 mps 687 mmHg 76%
    02:00 +8°C° 0.2 mm 1 mps 687 mmHg 77%
    03:00 +8°C° 0.2 mm 1 mps 686 mmHg 78%
    04:00 +8°C° 0.2 mm 1 mps 686 mmHg 78%
    05:00 +7°C° 0.2 mm 1 mps 687 mmHg 79%
    06:00 +7°C° 0.2 mm 1 mps 687 mmHg 80%
    07:00 +8°C° 0.2 mm 1 mps 687 mmHg 75%
    08:00 +10°C° 0.2 mm 1 mps 687 mmHg 70%
    09:00 +11°C° 0.2 mm 1 mps 687 mmHg 65%
    10:00 +12°C° 0.1 mm 1 mps 687 mmHg 62%
    11:00 +13°C° 0.1 mm 1 mps 686 mmHg 59%
    12:00 +14°C° 0.1 mm 1 mps 686 mmHg 56%
    13:00 +14°C° 0.2 mm 1 mps 686 mmHg 57%
    14:00 +14°C° 0.2 mm 1 mps 686 mmHg 57%
    15:00 +14°C° 0.2 mm 1 mps 685 mmHg 57%
    16:00 +13°C° 0.3 mm 1 mps 685 mmHg 61%
    17:00 +12°C° 0.3 mm 1 mps 685 mmHg 64%
    18:00 +12°C° 0.3 mm 1 mps 685 mmHg 68%
    19:00 +11°C° 0.2 mm 1 mps 685 mmHg 71%
    20:00 +10°C° 0.2 mm 1 mps 686 mmHg 73%
    21:00 +9°C° 0.2 mm 1 mps 686 mmHg 76%
    22:00 +9°C° 0.1 mm 1 mps 686 mmHg 77%
    23:00 +8°C° 0.1 mm 1 mps 686 mmHg 79%

    2 April, Sunday

    Time Temperature Precipitation Wind Pressure Humidity
    00:00 +8°C° 0.1 mm 1 mps 686 mmHg 80%
    01:00 +7°C° 0.1 mm 1 mps 686 mmHg 81%
    02:00 +7°C° 0.1 mm 1 mps 686 mmHg 82%
    03:00 +7°C° 0.1 mm 1 mps 686 mmHg 83%
    04:00 +6°C° 0 mm 1 mps 686 mmHg 83%
    05:00 +6°C° 0 mm 1 mps 686 mmHg 83%
    06:00 +5°C° 0 mm 1 mps 686 mmHg 84%
    07:00 +7°C° 0 mm 1 mps 687 mmHg 76%
    08:00 +9°C° 0 mm 1 mps 687 mmHg 69%
    09:00 +11°C° 0 mm 1 mps 688 mmHg 62%
    10:00 +12°C° 0.1 mm 1 mps 688 mmHg 59%
    11:00 +13°C° 0.1 mm 1 mps 688 mmHg 56%
    12:00 +14°C° 0.1 mm 1 mps 688 mmHg 54%
    13:00 +15°C° 0.2 mm 1 mps 688 mmHg 53%
    14:00 +15°C° 0.2 mm 1 mps 687 mmHg 53%
    15:00 +15°C° 0.2 mm 1 mps 687 mmHg 53%
    16:00 +14°C° 0.3 mm 2 mps 687 mmHg 56%
    17:00 +13°C° 0.3 mm 2 mps 687 mmHg 58%
    18:00 +12°C° 0.3 mm 2 mps 687 mmHg 61%
    19:00 +10°C° 0 mm 2 mps 688 mmHg 65%
    20:00 +9°C° 0 mm 2 mps 689 mmHg 69%
    21:00 +7°C° 0 mm 2 mps 689 mmHg 73%
    22:00 +7°C° 0 mm 2 mps 689 mmHg 75%
    23:00 +6°C° 0 mm 2 mps 689 mmHg 76%

    3 April, Monday

    Time Temperature Precipitation Wind Pressure Humidity
    00:00 +5°C° 0 mm 2 mps 689 mmHg 78%
    01:00 +6°C° 0 mm 1 mps 689 mmHg 78%
    02:00 +5°C° 0 mm 1 mps 689 mmHg 79%
    03:00 +5°C° 0 mm 1 mps 689 mmHg 80%
    04:00 +5°C° 0 mm 1 mps 689 mmHg 80%
    05:00 +4°C° 0 mm 1 mps 689 mmHg 80%
    06:00 +4°C° 0 mm 1 mps 689 mmHg 81%
    07:00 +6°C° 0 mm 1 mps 689 mmHg 72%
    08:00 +8°C° 0 mm 1 mps 689 mmHg 63%
    09:00 +10°C° 0 mm 1 mps 689 mmHg 54%
    10:00 +11°C° 0 mm 1 mps 689 mmHg 49%
    11:00 +12°C° 0 mm 1 mps 689 mmHg 45%
    12:00 +14°C° 0 mm 1 mps 689 mmHg 40%
    13:00 +14°C° 0 mm 1 mps 688 mmHg 39%
    14:00 +14°C° 0 mm 1 mps 688 mmHg 38%
    15:00 +15°C° 0 mm 1 mps 688 mmHg 36%
    16:00 +13°C° 0 mm 1 mps 688 mmHg 41%
    17:00 +12°C° 0 mm 1 mps 687 mmHg 46%
    18:00 +11°C° 0 mm 1 mps 687 mmHg 51%
    19:00 +9°C° 0 mm 1 mps 688 mmHg 53%
    20:00 +8°C° 0 mm 1 mps 688 mmHg 56%
    21:00 +6°C° 0 mm 1 mps 688 mmHg 59%
    22:00 +6°C° 0 mm 1 mps 688 mmHg 59%
    23:00 +6°C° 0 mm 1 mps 688 mmHg 60%

    4 April, Tuesday

    Time Temperature Precipitation Wind Pressure Humidity
    00:00 +5°C° 0 mm 1 mps 688 mmHg 61%
    01:00 +5°C° 0 mm 1 mps 688 mmHg 61%
    02:00 +5°C° 0 mm 1 mps 688 mmHg 60%
    03:00 +5°C° 0 mm 1 mps 688 mmHg 60%
    04:00 +4°C° 0 mm 1 mps 688 mmHg 60%
    05:00 +4°C° 0 mm 1 mps 688 mmHg 60%
    06:00 +4°C° 0 mm 1 mps 688 mmHg 60%
    07:00 +7°C° 0 mm 1 mps 689 mmHg 53%
    08:00 +10°C° 0 mm 1 mps 689 mmHg 46%
    09:00 +12°C° 0 mm 1 mps 689 mmHg 40%
    10:00 +14°C° 0 mm 1 mps 689 mmHg 37%
    11:00 +15°C° 0 mm 1 mps 689 mmHg 34%
    12:00 +16°C° 0 mm 1 mps 689 mmHg 32%
    13:00 +18°C° 0 mm 1 mps 688 mmHg 31%
    14:00 +18°C° 0 mm 1 mps 688 mmHg 31%
    15:00 +19°C° 0 mm 1 mps 688 mmHg 30%
    16:00 +16°C° 0 mm 1 mps 688 mmHg 35%
    17:00 +14°C° 0 mm 1 mps 687 mmHg 39%
    18:00 +13°C° 0 mm 1 mps 687 mmHg 43%
    19:00 +12°C° 0 mm 1 mps 687 mmHg 44%
    20:00 +10°C° 0 mm 1 mps 687 mmHg 45%
    21:00 +9°C° 0 mm 1 mps 688 mmHg 46%
    22:00 +9°C° 0 mm 1 mps 687 mmHg 47%
    23:00 +8°C° 0 mm 1 mps 687 mmHg 47%
    Show more